Weather History for KAIA - January, 2013

Change the Weather History Date:

Monday, January 28, 2013

  Actual Average Record
Temperature  
Mean Temperature 27 °F 25 °F  
Max Temperature 32 °F 39 °F 61 °F (1987)
Min Temperature 22 °F 11 °F -18 °F (1902)
Degree Days  
Heating Degree Days 38 40  
Month to date heating degree days 1125 1142  
Since 1 July heating degree days 3929 4224  
Cooling Degree Days 0 0  
Month to date cooling degree days 0 0  
Year to date cooling degree days 0 0  
Moisture  
Dew Point 27 °F    
Average Humidity 96    
Maximum Humidity 100    
Minimum Humidity 92    
Precipitation  
Precipitation T in 0.00 in 0.10 in (1908)
Month to date precipitation T 0.15  
Year to date precipitation T 0.15  
Sea Level Pressure  
Sea Level Pressure 29.70 in    
Wind  
Wind Speed 11 mph (North)    
Max Wind Speed 21 mph    
Max Gust Speed 26 mph    
Visibility 3 miles    
Events Fog , Snow    
T = Trace of Precipitation, MM = Missing Value Source: NWS Daily Summary

Daily Weather History Graph

Daily Weather History Graph

Search for Another Location

Airport or City:

Trip Planner

Search our weather history database for the weather conditions in past years. The results will help you decide how hot, cold, wet, or windy it might be!

Date:

Astronomy

Jan. 28, 2013 Rise Set
Actual Time 7:07 AM MST 5:01 PM MST
Civil Twilight 6:37 AM MST 5:31 PM MST
Nautical Twilight 6:04 AM MST 6:04 PM MST
Astronomical Twilight 5:31 AM MST 6:37 PM MST
Moon 7:01 PM MST (1/28) 7:32 AM MST (1/28)
Length of Visible Light 10h 53m
Length of Day
9h 53m
Full, 97% of the Moon is Illuminated
Jan 28
Full
Feb 3
Last Quarter
Feb 10
New
Feb 17
First Quarter
Feb 25
Full

Hourly Weather History & Observations

Time (MST) Temp. Windchill Dew Point Humidity Pressure Visibility Wind Dir Wind Speed Gust Speed Precip Events Conditions
12:53 AM 28.9 °F 25.2 °F 28.0 °F 96% 29.73 in 6.0 mi East 3.5 mph - N/A   Mostly Cloudy
1:00 AM 30.2 °F 26.7 °F 28.4 °F 93% 29.70 in 1.5 mi ESE 3.5 mph - N/A   Scattered Clouds
1:02 AM 30.2 °F - 28.4 °F 93% 29.70 in 1.0 mi Calm Calm - N/A   Scattered Clouds
1:10 AM 28.4 °F 24.6 °F 28.4 °F 100% 29.70 in 1.8 mi East 3.5 mph - N/A   Partly Cloudy
1:12 AM 30.2 °F 25.4 °F 28.4 °F 93% 29.70 in 3.0 mi East 4.6 mph - N/A   Partly Cloudy
1:18 AM 30.2 °F 25.4 °F 28.4 °F 93% 29.70 in 1.5 mi ESE 4.6 mph - N/A   Partly Cloudy
1:21 AM 30.2 °F 24.3 °F 28.4 °F 93% 29.70 in 1.0 mi East 5.8 mph - N/A   Partly Cloudy
1:30 AM 30.2 °F 26.7 °F 28.4 °F 93% 29.70 in 0.8 mi ESE 3.5 mph - N/A   Partly Cloudy
1:43 AM 28.4 °F - 28.4 °F 100% 29.70 in 0.2 mi Calm Calm - N/A Fog Light Freezing Fog
1:50 AM 28.4 °F - 26.6 °F 93% 29.70 in 0.2 mi Calm Calm - N/A Fog Light Freezing Fog
1:53 AM 28.9 °F 25.2 °F 27.0 °F 92% 29.70 in 0.2 mi East 3.5 mph - N/A Fog Light Freezing Fog
2:22 AM 26.6 °F 21.2 °F 24.8 °F 93% 29.68 in 0.2 mi East 4.6 mph - N/A Fog Light Freezing Fog
2:53 AM 23.0 °F 17.0 °F 21.9 °F 96% 29.70 in 0.2 mi SSE 4.6 mph - N/A Fog Light Freezing Fog
3:23 AM 24.8 °F - 23.0 °F 93% 29.68 in 1.2 mi Calm Calm - N/A   Mostly Cloudy
3:31 AM 24.8 °F 17.9 °F 23.0 °F 93% 29.68 in 2.0 mi West 5.8 mph - N/A   Mostly Cloudy
3:41 AM 24.8 °F - 24.8 °F 100% 29.68 in 5.0 mi Calm Calm - N/A   Mostly Cloudy
3:51 AM 24.8 °F - 24.8 °F 100% 29.68 in 8.0 mi Calm Calm - N/A   Scattered Clouds
3:53 AM 25.0 °F - 24.1 °F 96% 29.69 in 8.0 mi Calm Calm - N/A   Partly Cloudy
4:53 AM 27.0 °F - 26.1 °F 96% 29.70 in 10.0 mi Calm Calm - N/A   Clear
5:53 AM 28.0 °F 18.1 °F 26.1 °F 92% 29.73 in 10.0 mi North 11.5 mph - N/A   Partly Cloudy
6:12 AM 26.6 °F 15.7 °F 26.6 °F 100% 29.67 in 9.0 mi North 12.7 mph - N/A   Scattered Clouds
6:21 AM 28.4 °F 17.0 °F 26.6 °F 93% 29.67 in 4.0 mi North 15.0 mph - N/A   Mostly Cloudy
6:29 AM 28.4 °F 17.5 °F 26.6 °F 93% 29.68 in 1.8 mi North 13.8 mph - N/A   Mostly Cloudy
6:34 AM 28.4 °F 16.2 °F 26.6 °F 93% 29.67 in 1.0 mi North 17.3 mph - N/A   Overcast
6:43 AM 28.4 °F 17.0 °F 26.6 °F 93% 29.67 in 0.8 mi North 15.0 mph - N/A   Overcast
6:53 AM 28.0 °F 17.5 °F 27.0 °F 96% 29.74 in 0.5 mi North 12.7 mph - N/A Fog Light Freezing Fog
7:53 AM 28.9 °F 16.5 °F 28.0 °F 96% 29.72 in 0.2 mi NNE 18.4 mph - N/A Fog Light Freezing Fog
8:53 AM 30.0 °F 19.5 °F 28.9 °F 96% 29.73 in 0.2 mi NNE 13.8 mph - N/A Fog Light Freezing Fog
9:53 AM 30.0 °F 19.1 °F 28.9 °F 96% 29.76 in 0.2 mi North 15.0 mph - N/A Fog Light Freezing Fog
10:53 AM 30.9 °F 19.8 °F 30.0 °F 96% 29.75 in 0.2 mi NNE 16.1 mph - N/A Fog Light Freezing Fog
11:53 AM 30.9 °F 18.7 °F 30.0 °F 96% 29.71 in 1.2 mi NNE 19.6 mph - N/A   Overcast
12:23 PM 30.2 °F 17.8 °F 30.2 °F 100% 29.65 in 1.8 mi NNE 19.6 mph - N/A   Overcast
12:30 PM 30.2 °F 18.5 °F 30.2 °F 100% 29.65 in 2.0 mi NNE 17.3 mph - N/A   Overcast
12:53 PM 30.9 °F 20.2 °F 30.0 °F 96% 29.71 in 1.8 mi NNE 15.0 mph - N/A   Overcast
1:26 PM 30.2 °F 18.1 °F 30.2 °F 100% 29.64 in 2.5 mi NNE 18.4 mph 25.3 mph N/A   Overcast
1:45 PM 30.2 °F 19.3 °F 30.2 °F 100% 29.64 in 3.0 mi NNE 15.0 mph - N/A   Overcast
1:53 PM 30.9 °F 19.8 °F 30.0 °F 96% 29.70 in 4.0 mi NNE 16.1 mph - N/A   Overcast
2:06 PM 30.2 °F 20.2 °F 30.2 °F 100% 29.65 in 1.8 mi NNE 12.7 mph - N/A   Overcast
2:18 PM 30.2 °F 19.8 °F 30.2 °F 100% 29.66 in 3.0 mi NNE 13.8 mph - N/A   Overcast
2:24 PM 30.2 °F 20.8 °F 30.2 °F 100% 29.66 in 1.8 mi North 11.5 mph - N/A   Overcast
2:28 PM 30.2 °F 19.8 °F 30.2 °F 100% 29.66 in 1.0 mi North 13.8 mph - 0.00 in Snow Light Snow
2:36 PM 30.2 °F 18.9 °F 30.2 °F 100% 29.66 in 0.8 mi North 16.1 mph - 0.00 in Snow Light Snow
2:44 PM 30.2 °F 19.8 °F 28.4 °F 93% 29.66 in 1.2 mi North 13.8 mph - 0.00 in Snow Light Snow
2:53 PM 30.9 °F 20.7 °F 30.0 °F 96% 29.75 in 1.5 mi North 13.8 mph - 0.00 in Snow Light Snow
2:58 PM 30.2 °F 19.3 °F 28.4 °F 93% 29.67 in 1.0 mi North 15.0 mph - 0.00 in Snow Light Snow
3:15 PM 30.2 °F 19.8 °F 28.4 °F 93% 29.66 in 1.2 mi North 13.8 mph - 0.00 in Snow Light Snow
3:17 PM 30.2 °F 19.8 °F 28.4 °F 93% 29.66 in 1.0 mi North 13.8 mph - 0.00 in Snow Light Snow
3:25 PM 30.2 °F 21.3 °F 28.4 °F 93% 29.67 in 1.5 mi North 10.4 mph - 0.00 in Snow Light Snow
3:35 PM 30.2 °F 20.8 °F 28.4 °F 93% 29.67 in 2.5 mi North 11.5 mph - 0.00 in Snow Light Snow
3:53 PM 30.0 °F 19.5 °F 28.0 °F 92% 29.74 in 3.0 mi North 13.8 mph - 0.00 in Snow Light Snow
3:55 PM 30.2 °F 19.3 °F 28.4 °F 93% 29.66 in 2.0 mi North 15.0 mph - 0.00 in Snow Light Snow
3:58 PM 30.2 °F 19.3 °F 28.4 °F 93% 29.66 in 1.2 mi North 15.0 mph - 0.00 in Snow Light Snow
4:00 PM 30.2 °F 19.3 °F 28.4 °F 93% 29.66 in 0.8 mi North 15.0 mph - 0.00 in Snow Light Snow
4:11 PM 30.2 °F 19.3 °F 28.4 °F 93% 29.67 in 0.5 mi North 15.0 mph - 0.00 in Fog , Snow Snow
4:18 PM 30.2 °F 19.3 °F 28.4 °F 93% 29.67 in 1.2 mi North 15.0 mph - 0.00 in Snow Light Snow
4:27 PM 30.2 °F 19.8 °F 28.4 °F 93% 29.67 in 3.0 mi NNW 13.8 mph - 0.00 in Snow Light Snow
4:49 PM 28.4 °F 17.5 °F 26.6 °F 93% 29.68 in 3.0 mi NNW 13.8 mph - 0.00 in Snow Light Snow
4:53 PM 28.9 °F 17.3 °F 27.0 °F 92% 29.75 in 2.5 mi North 16.1 mph - 0.00 in Snow Light Snow
5:04 PM 28.4 °F 15.8 °F 26.6 °F 93% 29.67 in 1.2 mi North 18.4 mph - 0.00 in Snow Light Snow
5:21 PM 28.4 °F 18.5 °F 26.6 °F 93% 29.69 in 1.8 mi North 11.5 mph - 0.00 in Snow Light Snow
5:40 PM 28.4 °F 18.5 °F 26.6 °F 93% 29.72 in 2.5 mi NNW 11.5 mph - 0.00 in Snow Light Snow
5:53 PM 28.0 °F 18.1 °F 26.1 °F 92% 29.81 in 2.5 mi NNW 11.5 mph - 0.00 in Snow Light Snow
6:10 PM 28.4 °F 19.1 °F 26.6 °F 93% 29.73 in 1.2 mi North 10.4 mph - 0.00 in Snow Light Snow
6:18 PM 28.4 °F 19.7 °F 26.6 °F 93% 29.72 in 1.0 mi North 9.2 mph - 0.00 in Snow Light Snow
6:27 PM 28.4 °F 19.7 °F 26.6 °F 93% 29.72 in 1.2 mi North 9.2 mph - 0.00 in Snow Light Snow
6:38 PM 28.4 °F 19.7 °F 26.6 °F 93% 29.72 in 1.0 mi North 9.2 mph - 0.00 in Snow Light Snow
6:50 PM 28.4 °F 19.7 °F 26.6 °F 93% 29.72 in 1.2 mi North 9.2 mph - 0.00 in Snow Light Snow
6:53 PM 28.0 °F 19.3 °F 26.1 °F 92% 29.81 in 1.2 mi North 9.2 mph - 0.00 in Snow Light Snow
7:02 PM 28.4 °F 18.5 °F 26.6 °F 93% 29.72 in 1.5 mi North 11.5 mph - 0.00 in Snow Light Snow
7:15 PM 28.4 °F 18.5 °F 26.6 °F 93% 29.72 in 2.5 mi North 11.5 mph - 0.00 in Snow Light Snow
7:27 PM 26.6 °F 16.2 °F 26.6 °F 100% 29.72 in 3.0 mi North 11.5 mph - 0.00 in Snow Light Snow
7:50 PM 26.6 °F 16.8 °F 24.8 °F 93% 29.71 in 9.0 mi North 10.4 mph - 0.00 in   Overcast
7:53 PM 27.0 °F 17.3 °F 25.0 °F 92% 29.80 in 9.0 mi North 10.4 mph - 0.00 in   Overcast
8:46 PM 26.6 °F 20.0 °F 24.8 °F 93% 29.72 in 2.5 mi NNW 5.8 mph - 0.00 in Snow Light Snow
8:53 PM 27.0 °F 18.7 °F 25.0 °F 92% 29.80 in 3.0 mi NNW 8.1 mph - 0.00 in Snow Light Snow
9:37 PM 26.6 °F 19.1 °F 24.8 °F 93% 29.73 in 10.0 mi NW 6.9 mph - 0.00 in   Overcast
9:53 PM 27.0 °F 19.5 °F 25.0 °F 92% 29.80 in 10.0 mi NNW 6.9 mph - 0.00 in   Overcast
10:53 PM 27.0 °F 21.6 °F 25.0 °F 92% 29.80 in 10.0 mi NW 4.6 mph - N/A   Overcast
11:36 PM 24.8 °F 19.1 °F 23.0 °F 93% 29.72 in 10.0 mi WNW 4.6 mph - N/A   Mostly Cloudy
11:53 PM 23.0 °F 15.8 °F 21.9 °F 96% 29.79 in 10.0 mi NW 5.8 mph - N/A   Mostly Cloudy